{"data":{"norad_id":58670,"epoch":"2026-05-25T00:40:15.489984Z","epoch_age_seconds":69255,"freshness":"FRESH","line1":"1 58670U 23211D   26145.02795706  .00002370  00000+0  95622-4 0  9998","line2":"2 58670  43.0067  13.8116 0001285 266.1560  93.9145 15.27585233134145","mean_motion":15.27585233,"eccentricity":0.0001285,"inclination_deg":43.0067,"raan_deg":13.8116,"arg_perigee_deg":266.156,"mean_anomaly_deg":93.9145,"bstar":9.5622e-5,"rev_number":13414,"period_min":94.266425787058,"perigee_km":482.15176620001,"apogee_km":483.91508699964,"semimajor_km":6861.1704265998,"source":"CELESTRAK","updated_at":"2026-05-25T13:38:18.710348Z"}}